User: anonymous   Login
Location: Pabrico
(37.5827°N, 122.0063°W)
Time: 19:29:13
(UTC+00:00)
Language:

YAOGAN 11 - Orbit

View from above orbital plane
View from above orbital plane
View from above satellite
View from above satellite

Ground track
Ground track

The orbit data is extracted from the following two-line orbital elements,

1 37165U 10047A   24177.45784310  .00001263  00000-0  17646-3 0  9996
2 37165  98.4349 356.6237 0037333  36.5086 323.8659 14.79106794741275
Epoch (UTC): 25 June 2024 10:59:17
Eccentricity: 0.0037333
inclination: 98.4349°
perigee height: 606 km
apogee height: 658 km
right ascension of ascending node: 356.6237°
argument of perigee: 36.5086°
revolutions per day: 14.79106794
mean anomaly at epoch: 323.8659°
orbit number at epoch: 74127

The dashed part of the orbit path shows where the satellite is in the earth's shadow,  

DLR